Temperature
20 18 18 19 19 21 21 21 21 21 22 21 21 21 20 20 20 19 19 20 20 20 21 21 21 20 20 20 20 20 20 19 19 19 18 18 18 18 18 18 18 17 17 17
18 19 19 20 20 20 21 21 20 21 21 21 21 20 20 19 19 20 20 20 20 20 20 20 20 20 20 20 20 20 19 19 19 19 19 18 18 18 18 18 17 17 17 17
20 20 20 20 21 21 21 20 21 21 21 21 21 20 20 20 20 20 20 20 20 20 20 20 20 20 20 20 20 20 19 19 19 19 18 18 18 18 18 18 17 17 17 17
20 20 21 21 21 21 20 21 21 21 20 19 20 19 20 19 19 19 19 20 20 20 21 21 20 20 20 20 20 20 19 19 19 18 18 18 18 18 18 18 17 17 17 17
20 21 21 21 21 21 21 21 21 20 19 19 19 19 18 18 19 19 19 20 20 20 21 21 21 20 20 20 20 20 19 19 19 19 18 18 18 18 18 18 17 17 17 17
20 20 21 21 22 21 21 20 18 16 17 18 19 18 18 18 19 19 19 20 20 20 20 21 20 20 20 20 20 20 19 19 19 19 18 18 18 18 18 18 17 17 17 17
20 21 21 21 21 21 20 18 18 18 17 17 18 18 17 18 18 19 19 19 20 20 20 20 20 20 20 20 20 19 19 19 19 18 18 18 18 18 18 18 17 17 17 17
19 19 21 21 21 20 19 19 18 18 18 17 18 18 18 18 19 19 19 19 20 20 20 20 20 20 20 20 20 19 19 19 19 18 18 18 18 17 17 17 17 17 17 17
18 19 21 21 20 20 19 18 17 16 17 17 17 17 18 19 18 18 18 19 19 19 19 20 20 20 20 20 20 19 19 19 19 18 18 18 18 17 17 17 17 17 17 16
18 19 20 20 20 19 18 16 15 16 16 17 18 18 17 18 18 17 17 18 18 19 19 19 19 19 19 19 19 19 19 19 18 18 18 17 17 17 17 17 17 16 16 16
18 18 19 19 20 19 18 17 15 14 15 16 17 17 18 17 17 17 17 18 19 19 19 19 19 19 19 19 19 19 18 18 18 18 18 17 17 17 17 17 16 16 16 16
16 15 16 18 18 19 18 17 15 16 16 14 15 16 17 16 16 16 17 18 18 19 19 19 19 19 19 19 19 18 18 18 18 17 17 17 17 17 17 17 17 16 16 16
16 15 16 17 17 17 18 17 15 14 13 13 15 17 17 16 16 17 17 18 18 18 18 19 19 19 19 19 18 18 18 18 17 17 17 17 17 17 17 17 16 16 16 15
16 14 15 17 17 17 17 17 16 15 14 14 15 16 16 16 15 16 17 17 17 18 18 18 18 18 18 19 19 18 18 18 17 17 17 17 17 17 17 16 16 15 15 15
15 15 15 16 17 17 17 17 16 16 15 15 16 16 16 15 15 16 16 16 16 17 17 17 18 18 18 18 18 18 18 17 17 17 17 16 16 16 16 16 15 15 15 15
13 14 15 16 16 16 17 17 16 16 16 16 16 16 15 15 15 15 15 16 16 16 16 17 17 17 17 17 17 17 17 17 17 17 16 16 16 16 16 15 15 15 15 15
12 13 14 14 15 16 16 16 16 16 16 16 16 15 15 14 14 15 15 15 15 16 16 16 16 16 17 17 17 16 16 16 16 16 16 16 16 15 15 15 15 15 15 15
12 11 11 12 15 15 15 15 16 15 15 15 15 14 14 14 15 15 16 16 16 16 16 16 16 16 16 16 16 16 16 16 15 15 15 15 15 15 15 15 15 15 14 14
11 11 11 11 13 14 15 15 15 15 15 14 14 14 14 14 14 15 16 16 16 16 16 16 16 16 15 15 15 15 15 15 15 15 15 15 15 15 15 14 14 14 14 14
10 10 11 11 13 14 14 15 15 15 14 14 13 13 13 13 13 14 15 15 16 16 16 16 16 15 15 15 15 15 15 15 15 15 15 15 14 14 14 14 14 14 14 14
12 11 11 11 13 13 13 14 15 14 14 14 14 13 13 13 14 15 15 15 15 15 16 16 15 15 15 15 15 15 15 15 15 15 14 14 14 14 14 14 14 14 14 13
12 11 11 11 12 13 13 13 13 13 13 13 14 14 14 14 14 15 15 15 15 15 15 15 15 15 15 14 14 14 14 14 14 14 14 14 14 14 14 13 13 13 13 13
10 11 10 11 11 12 13 13 14 14 13 14 14 14 14 14 14 14 14 14 14 14 14 14 14 14 14 14 14 14 14 14 14 13 13 13 13 13 13 13 12 12 12 12
11 10 10 10 11 12 13 13 14 14 14 14 14 14 14 14 14 14 14 14 14 14 14 14 14 14 14 14 13 13 13 13 13 13 13 13 13 12 12 12 12 12 12 12
10 10 10 10 11 12 13 14 14 14 14 14 14 14 14 14 14 14 14 14 14 14 14 14 14 14 13 13 13 13 13 13 13 12 12 12 12 12 12 12 12 12 12 12
9 10 10 10 12 11 13 14 14 13 13 13 13 13 13 13 13 13 13 13 13 13 13 13 13 13 13 13 13 13 12 12 12 12 12 12 12 12 12 12 12 11 11 11
Wind_Speed
3 4 3 7 7 5 3 3 4 6 3 1 4 4 4 4 5 6 6 6 8 8 7 6 6 6 6 5 5 5 5 4 4 3 3 3 2 2 1 2 3 4 4 4
5 3 7 4 4 4 3 2 3 5 2 2 2 3 3 4 7 8 9 9 8 7 5 6 6 6 7 7 6 5 5 5 5 4 3 3 2 2 2 2 2 4 5 5
6 5 3 5 3 3 4 5 5 4 3 3 1 5 3 2 2 3 6 6 7 9 9 8 8 7 7 8 8 8 6 6 5 4 2 2 2 1 1 1 2 3 4 5
5 5 2 3 4 6 5 6 6 3 1 2 1 2 5 2 2 4 6 6 8 8 8 8 8 8 9 9 8 7 6 5 4 5 5 5 4 4 4 3 3 2 3 4
5 3 3 4 6 7 6 1 3 2 4 1 2 2 6 2 3 6 6 7 7 8 9 9 10 10 9 8 7 7 6 6 5 6 7 6 5 4 2 2 2 2 2 3
5 3 4 5 2 4 4 6 6 5 5 0 3 4 6 3 6 5 5 6 6 6 7 7 7 7 7 7 7 6 6 6 5 6 6 6 6 5 4 3 3 3 2 2
4 4 3 2 1 2 5 6 3 4 3 5 2 3 7 5 5 5 6 6 6 5 5 6 7 7 8 8 7 6 7 6 5 5 5 5 5 5 6 5 5 4 3 2
1 5 3 2 4 4 4 8 7 5 5 4 2 4 5 4 3 3 4 5 4 5 5 7 8 8 9 9 8 8 8 7 6 6 5 4 4 4 3 4 4 4 4 3
4 5 4 1 1 7 5 3 5 6 3 1 4 5 6 2 3 3 3 2 3 4 6 7 6 6 8 9 9 9 8 6 6 6 5 4 4 4 4 4 3 3 3 3
6 3 4 3 4 4 5 7 6 5 5 3 4 4 4 4 5 4 4 3 4 3 4 5 6 6 6 7 7 7 7 7 6 6 6 5 5 4 4 4 4 4 4 4
3 3 4 4 1 1 3 4 5 4 4 6 3 6 4 5 4 5 5 4 4 3 4 5 5 5 5 4 5 6 6 5 5 5 5 5 4 4 4 4 3 3 3 4
2 4 1 4 4 1 4 5 6 4 3 4 4 6 4 2 3 3 5 5 4 3 3 4 4 4 4 5 5 5 6 6 6 5 4 4 4 4 4 4 3 3 3 4
3 5 2 5 5 4 3 3 4 5 4 5 4 6 3 3 4 3 3 4 4 3 1 2 4 4 4 4 5 5 6 6 5 5 4 4 4 4 4 4 4 4 4 4
4 4 5 7 6 2 1 1 3 4 4 4 6 7 6 5 5 5 4 3 3 2 1 2 3 3 3 4 5 5 4 4 5 5 5 4 4 4 4 3 4 5 4 4
4 3 2 3 2 2 2 3 3 4 6 7 6 6 7 6 5 5 3 2 2 2 1 1 2 3 2 3 3 4 3 3 4 5 5 5 4 3 3 3 4 4 4 4
4 3 1 2 2 2 2 3 3 3 3 4 4 6 5 4 3 2 2 1 1 1 1 0 1 2 2 3 3 3 3 3 4 4 4 4 3 3 3 3 4 4 4 3
2 4 3 2 4 2 3 3 3 3 3 4 5 6 3 3 4 3 2 2 2 1 0 1 1 2 2 3 3 4 3 3 3 3 3 2 3 3 3 3 3 3 3 3
5 4 3 1 1 4 6 2 1 2 1 2 3 4 3 4 3 3 2 3 2 2 1 1 0 1 0 1 2 4 4 4 3 2 2 2 2 3 3 3 3 3 2 2
4 6 4 3 2 5 4 2 1 1 3 2 3 3 2 0 2 3 2 2 3 2 1 1 1 1 1 2 2 4 4 4 3 2 2 2 3 3 3 3 3 2 3 2
5 5 5 4 3 5 5 3 1 1 4 3 1 2 1 2 0 4 3 2 2 1 0 1 1 2 2 2 3 4 4 4 3 3 3 3 3 3 3 3 2 2 3 3
3 3 3 3 4 6 4 3 1 3 6 3 2 3 2 4 5 4 2 2 1 1 1 1 2 2 1 2 4 4 3 4 4 3 2 2 2 3 3 3 2 2 3 3
5 4 4 4 3 6 2 2 3 5 3 3 3 3 4 4 3 2 1 1 0 0 0 1 2 1 0 1 3 3 3 3 2 2 2 2 2 2 2 3 2 2 3 3
5 6 5 6 6 4 2 3 4 3 3 3 3 3 2 2 2 2 2 1 1 1 1 1 2 1 1 1 3 3 3 2 2 2 2 1 2 1 2 3 3 2 2 3
2 2 3 3 5 4 4 3 3 3 4 3 3 3 2 2 2 2 1 1 1 1 1 1 2 1 1 1 2 3 2 2 3 3 2 2 2 2 1 2 2 2 2 2
4 3 2 3 5 3 3 3 4 3 3 2 2 1 2 2 3 2 1 2 2 2 1 2 2 2 2 2 2 2 3 3 3 3 3 2 2 2 2 2 2 3 3 3
4 6 6 6 6 5 5 5 4 3 3 3 1 2 2 1 3 2 1 2 2 1 1 1 2 2 2 2 2 2 3 4 4 3 2 2 2 2 2 2 0 1 2 3
Wind_Direction
68 84 202 211 193 187 182 199 257 267 256 197 237 253 250 195 180 183 189 192 193 200 198 184 176 171 163 166 171 171 167 174 164 165 171 178 202 209 206 208 190 181 179 173
44 269 232 191 171 172 185 221 266 297 325 161 243 287 263 197 194 192 195 200 204 204 192 188 180 175 176 180 183 177 180 182 183 188 184 177 172 189 198 201 191 189 184 178
191 237 183 155 168 182 217 202 223 242 345 27 61 329 305 262 200 200 211 208 205 207 200 196 192 192 186 186 187 191 193 191 189 176 146 126 102 82 136 202 210 206 187 177
223 252 185 176 206 173 246 228 203 201 131 297 81 274 294 277 261 226 222 215 213 211 204 200 196 196 196 198 190 185 187 189 187 173 173 175 185 197 211 205 205 200 185 175
240 220 182 209 222 178 214 169 149 157 151 55 15 159 285 325 262 254 242 229 221 214 205 202 201 197 196 192 186 184 179 184 185 182 185 185 195 204 194 176 179 190 192 184
249 249 205 215 214 174 156 73 61 54 80 241 239 173 271 252 235 252 249 239 232 222 214 207 199 187 192 187 181 175 174 187 185 183 185 187 191 185 177 185 188 196 192 188
318 303 275 184 73 34 95 94 34 359 12 246 247 182 247 262 248 238 250 250 237 216 202 195 194 190 191 187 182 177 180 192 189 183 187 195 196 190 195 198 193 189 188 191
252 294 276 206 175 180 170 146 161 199 222 266 291 222 249 263 290 270 259 248 234 220 200 194 194 192 192 189 184 180 191 200 192 188 195 195 192 193 202 200 195 194 197 196
187 258 297 284 172 142 142 167 162 139 154 225 275 282 299 292 336 334 322 301 259 234 210 197 189 188 192 191 190 189 190 197 196 193 190 186 184 184 191 190 192 196 193 185
167 237 300 298 69 40 131 140 103 126 159 229 279 270 246 262 276 291 301 292 287 270 221 194 187 192 193 191 187 182 181 186 192 190 193 194 188 186 185 178 187 192 190 181
134 163 318 10 90 187 92 92 105 118 151 163 229 266 228 220 246 267 275 280 271 264 228 203 193 190 185 178 177 182 180 176 181 187 190 187 188 182 179 184 196 194 181 179
119 123 262 284 293 247 138 147 143 151 207 174 181 259 281 227 260 275 291 300 291 273 228 202 184 171 168 176 182 183 184 186 191 184 177 187 187 180 179 189 195 194 189 185
117 107 65 346 343 8 63 96 121 126 125 159 179 256 310 349 331 322 305 309 309 305 261 181 168 170 175 178 181 187 189 192 189 176 174 182 188 191 196 195 189 190 187 185
112 108 164 196 222 225 254 171 141 128 152 198 219 248 294 312 313 315 313 314 316 322 274 177 171 178 177 172 176 179 187 183 172 170 179 194 202 199 198 187 179 186 188 184
91 124 198 242 257 222 222 222 183 186 193 197 230 234 260 270 272 279 289 314 341 353 26 179 184 185 169 149 157 162 161 161 168 170 184 202 200 183 171 167 173 178 187 189
67 132 107 326 316 290 269 261 223 212 204 208 225 254 263 281 284 293 283 263 288 316 307 272 199 165 148 151 157 155 156 167 160 171 188 188 168 162 164 168 169 169 181 180
82 123 121 252 299 347 274 249 214 209 202 183 216 245 278 297 287 272 249 227 236 248 336 293 211 201 186 176 163 161 165 155 150 163 166 161 157 164 174 173 160 168 176 170
135 113 124 139 49 230 245 279 202 186 228 225 240 260 252 254 268 285 238 194 215 241 259 276 258 221 180 136 137 135 132 131 137 137 139 152 156 160 151 146 161 172 168 168
140 134 123 126 189 277 289 282 164 194 275 270 248 277 292 76 33 330 270 206 221 239 244 245 235 192 137 128 138 128 129 130 135 150 161 183 174 169 157 160 175 176 169 176
69 95 117 134 172 235 249 282 301 128 271 282 265 269 266 107 199 268 278 285 276 288 260 182 126 113 142 146 131 132 144 146 172 186 185 184 175 170 167 174 169 162 163 173
66 66 129 169 215 255 256 288 68 172 249 290 264 252 226 209 226 246 270 281 283 282 224 147 127 122 177 156 143 152 167 192 207 193 171 168 173 169 166 164 150 147 153 151
173 163 182 160 197 251 283 105 180 231 278 286 269 252 237 244 268 275 242 236 295 5 93 114 116 105 30 140 153 172 207 219 187 164 159 165 164 159 146 138 137 149 152 149
196 191 190 190 210 246 257 233 252 231 243 258 257 258 227 249 269 290 295 257 207 177 171 132 123 104 341 198 170 192 226 184 153 145 152 159 149 135 139 147 152 146 147 155
258 165 161 236 260 261 268 269 272 251 240 253 255 246 220 248 269 277 285 289 240 217 207 181 148 159 236 247 197 200 205 178 157 154 164 167 157 154 147 154 162 164 176 175
226 176 176 252 273 292 288 253 250 265 264 285 304 268 234 238 258 241 238 258 261 254 221 181 185 199 227 236 234 216 193 169 163 168 176 179 182 176 172 168 185 192 211 206
206 186 184 223 223 205 242 249 243 236 252 256 278 327 320 225 233 233 241 246 245 266 261 206 216 221 234 232 239 235 203 176 171 179 190 194 188 184 178 171 238 328 240 241
Height
1488 1495 1499 1497 1496 1497 1499 1502 1505 1500 1493 1495 1497 1497 1494 1493 1494 1495 1497 1498 1499 1500 1503 1506 1508 1510 1512 1514 1516 1518 1519 1521 1523 1524 1525 1526 1527 1528 1529 1530 1531 1532 1533 1533
1494 1496 1491 1490 1493 1495 1498 1503 1503 1498 1492 1494 1497 1497 1493 1492 1492 1493 1494 1496 1498 1500 1502 1504 1506 1508 1510 1512 1514 1516 1518 1520 1521 1522 1523 1525 1526 1527 1528 1529 1530 1531 1531 1532
1493 1491 1486 1489 1492 1496 1498 1501 1500 1500 1496 1495 1498 1501 1496 1492 1492 1494 1494 1495 1497 1498 1499 1501 1503 1505 1508 1509 1511 1514 1516 1517 1519 1520 1522 1524 1525 1525 1526 1527 1528 1529 1530 1531
1490 1486 1486 1489 1491 1493 1500 1491 1493 1496 1504 1510 1504 1516 1501 1495 1493 1492 1492 1493 1493 1495 1496 1498 1500 1502 1505 1507 1509 1512 1514 1515 1517 1518 1520 1521 1522 1523 1524 1525 1526 1527 1528 1529
1488 1484 1485 1488 1487 1487 1490 1487 1491 1496 1503 1511 1509 1516 1509 1497 1495 1491 1489 1489 1490 1491 1493 1495 1497 1499 1502 1505 1507 1509 1511 1513 1514 1516 1517 1519 1520 1521 1522 1523 1524 1525 1526 1527
1484 1481 1481 1481 1480 1482 1484 1491 1497 1505 1511 1521 1512 1516 1513 1501 1494 1489 1486 1486 1487 1488 1490 1492 1495 1498 1500 1503 1505 1506 1508 1510 1511 1513 1515 1516 1517 1518 1520 1521 1522 1524 1525 1525
1488 1482 1478 1478 1482 1483 1487 1503 1519 1521 1529 1525 1511 1513 1510 1493 1488 1487 1485 1484 1484 1485 1487 1489 1491 1494 1496 1499 1501 1503 1505 1507 1509 1510 1512 1514 1515 1516 1517 1519 1520 1522 1523 1524
1497 1496 1481 1477 1480 1486 1490 1498 1518 1527 1530 1524 1512 1513 1501 1488 1485 1484 1483 1482 1482 1483 1484 1485 1487 1490 1493 1496 1498 1500 1503 1504 1506 1508 1509 1511 1513 1515 1516 1517 1519 1520 1521 1522
1497 1494 1479 1476 1476 1481 1490 1497 1498 1515 1519 1524 1517 1507 1495 1485 1484 1483 1482 1481 1480 1481 1481 1482 1484 1487 1490 1493 1495 1498 1500 1502 1504 1506 1508 1509 1511 1513 1514 1516 1517 1519 1520 1521
1486 1492 1482 1477 1477 1481 1484 1492 1505 1515 1525 1527 1517 1510 1504 1491 1486 1483 1482 1481 1479 1479 1480 1481 1483 1485 1488 1490 1493 1495 1498 1499 1502 1504 1506 1507 1509 1511 1512 1514 1515 1517 1518 1519
1483 1492 1489 1483 1484 1487 1489 1495 1503 1513 1515 1524 1525 1513 1490 1487 1485 1483 1481 1479 1478 1478 1478 1479 1481 1483 1486 1489 1491 1493 1496 1498 1500 1502 1504 1505 1507 1508 1510 1511 1513 1515 1516 1517
1485 1494 1498 1490 1482 1481 1483 1490 1499 1509 1514 1517 1519 1511 1484 1483 1482 1481 1480 1479 1478 1477 1477 1478 1480 1482 1485 1487 1489 1491 1493 1495 1498 1500 1502 1503 1505 1506 1507 1509 1510 1513 1515 1516
1484 1495 1504 1500 1495 1488 1487 1489 1494 1502 1511 1517 1517 1506 1483 1482 1481 1480 1479 1478 1477 1476 1476 1476 1478 1480 1482 1484 1487 1489 1491 1493 1496 1498 1500 1501 1502 1504 1505 1507 1509 1511 1512 1513
1481 1494 1501 1504 1499 1492 1491 1490 1492 1498 1509 1511 1506 1497 1487 1484 1482 1480 1479 1478 1477 1476 1475 1476 1477 1478 1480 1482 1484 1487 1489 1491 1493 1496 1498 1499 1500 1502 1503 1505 1506 1508 1510 1511
1482 1493 1493 1492 1488 1488 1488 1488 1489 1493 1496 1500 1496 1493 1486 1483 1481 1480 1478 1478 1477 1476 1475 1476 1476 1478 1479 1480 1482 1485 1487 1489 1492 1493 1495 1497 1499 1500 1502 1503 1505 1506 1508 1509
1486 1492 1492 1493 1489 1488 1488 1486 1487 1488 1489 1490 1490 1489 1481 1480 1479 1478 1477 1477 1477 1476 1476 1476 1476 1477 1478 1480 1481 1483 1485 1488 1490 1492 1494 1496 1497 1498 1500 1501 1503 1504 1506 1507
1490 1494 1499 1501 1493 1489 1494 1487 1485 1485 1484 1486 1489 1485 1481 1479 1478 1477 1476 1476 1476 1476 1475 1476 1476 1477 1478 1479 1480 1482 1484 1486 1488 1490 1492 1493 1495 1496 1497 1499 1500 1502 1503 1504
1490 1496 1503 1504 1498 1503 1493 1482 1481 1483 1483 1482 1481 1480 1479 1478 1477 1476 1476 1476 1475 1475 1475 1475 1476 1477 1478 1479 1480 1481 1483 1485 1487 1489 1490 1492 1493 1494 1495 1496 1498 1499 1501 1502
1486 1493 1503 1508 1505 1499 1489 1482 1482 1484 1484 1480 1480 1479 1478 1477 1477 1476 1476 1476 1475 1475 1475 1475 1476 1477 1478 1479 1480 1481 1483 1484 1486 1487 1489 1490 1491 1492 1493 1494 1496 1497 1498 1499
1488 1491 1500 1505 1503 1502 1490 1481 1480 1483 1485 1479 1478 1478 1478 1477 1480 1477 1475 1475 1474 1475 1475 1475 1475 1476 1477 1478 1480 1481 1482 1483 1484 1486 1487 1489 1489 1490 1491 1492 1494 1495 1496 1497
1493 1496 1499 1502 1500 1493 1483 1480 1480 1490 1486 1478 1476 1476 1476 1476 1476 1474 1473 1473 1474 1474 1474 1475 1475 1476 1477 1478 1479 1480 1481 1482 1483 1485 1486 1487 1488 1488 1489 1490 1491 1492 1493 1494
1492 1496 1498 1501 1500 1495 1480 1479 1483 1482 1477 1476 1475 1474 1474 1473 1473 1472 1472 1472 1472 1473 1473 1474 1474 1475 1476 1477 1478 1479 1480 1481 1482 1483 1484 1485 1486 1486 1487 1488 1489 1490 1490 1491
1488 1489 1490 1491 1490 1481 1479 1478 1478 1477 1476 1475 1474 1473 1472 1472 1471 1471 1471 1471 1471 1472 1472 1473 1473 1474 1475 1476 1477 1477 1478 1479 1480 1481 1482 1482 1483 1484 1485 1486 1486 1487 1487 1488
1484 1483 1485 1485 1480 1478 1477 1476 1476 1475 1474 1473 1472 1472 1471 1471 1470 1470 1470 1470 1470 1471 1471 1472 1473 1473 1474 1475 1475 1476 1477 1478 1478 1478 1479 1480 1481 1482 1483 1484 1484 1485 1485 1485
1481 1481 1483 1482 1478 1476 1474 1474 1474 1473 1473 1472 1471 1470 1471 1471 1470 1470 1470 1470 1470 1470 1470 1471 1471 1471 1472 1473 1474 1474 1475 1476 1476 1476 1477 1478 1478 1479 1480 1481 1482 1482 1483 1484
1477 1478 1480 1478 1474 1474 1473 1473 1472 1472 1471 1471 1470 1470 1470 1469 1469 1469 1469 1469 1469 1469 1469 1469 1470 1470 1471 1471 1472 1473 1473 1473 1474 1474 1474 1475 1476 1476 1477 1479 1480 1480 1481 1481